TimeCDT,TemperatureF,Dew PointF,Humidity,Sea Level PressureIn,VisibilityMPH,Wind Direction,Wind SpeedMPH,Gust SpeedMPH,PrecipitationIn,Events,Conditions,WindDirDegrees,DateUTC
12:53 AM,71.1,64.0,78,29.76,10.0,SSE,12.7,21.9,N/A,,Clear,150,2012-10-25 05:53:00
1:53 AM,71.1,64.0,78,29.78,10.0,SSE,9.2,18.4,N/A,,Clear,160,2012-10-25 06:53:00
2:53 AM,68.0,64.0,87,29.79,10.0,SSE,8.1,-,N/A,,Clear,160,2012-10-25 07:53:00
3:53 AM,70.0,64.9,84,29.79,10.0,South,12.7,-,N/A,,Clear,170,2012-10-25 08:53:00
4:53 AM,71.1,64.9,81,29.78,10.0,South,17.3,23.0,N/A,,Clear,170,2012-10-25 09:53:00
5:53 AM,72.0,64.9,78,29.81,10.0,South,13.8,21.9,N/A,,Scattered Clouds,180,2012-10-25 10:53:00
6:03 AM,71.6,64.4,78,29.82,10.0,South,12.7,21.9,N/A,,Mostly Cloudy,180,2012-10-25 11:03:00
6:23 AM,71.6,64.4,78,29.82,10.0,South,13.8,24.2,N/A,,Scattered Clouds,170,2012-10-25 11:23:00
6:53 AM,70.0,64.9,84,29.80,10.0,South,15.0,-,N/A,,Clear,170,2012-10-25 11:53:00
7:53 AM,70.0,64.9,84,29.81,10.0,South,13.8,-,N/A,,Partly Cloudy,170,2012-10-25 12:53:00
8:53 AM,71.1,64.9,81,29.83,10.0,South,12.7,20.7,N/A,,Mostly Cloudy,180,2012-10-25 13:53:00
9:01 AM,71.6,64.4,78,29.85,10.0,South,11.5,21.9,N/A,,Overcast,180,2012-10-25 14:01:00
9:53 AM,72.0,64.9,78,29.86,10.0,SSW,15.0,23.0,N/A,,Overcast,200,2012-10-25 14:53:00
10:39 AM,73.4,64.4,73,29.89,10.0,SSW,18.4,24.2,N/A,,Overcast,210,2012-10-25 15:39:00
10:53 AM,73.0,64.9,76,29.87,10.0,SSW,17.3,23.0,N/A,,Overcast,210,2012-10-25 15:53:00
11:53 AM,60.1,57.0,90,29.93,5.0,NW,21.9,33.4,0.01,Rain,Light Rain,310,2012-10-25 16:53:00
11:58 AM,57.2,55.4,94,29.95,10.0,NW,28.8,35.7,0.00,Rain,Light Rain,320,2012-10-25 16:58:00
12:09 PM,55.4,53.6,94,29.96,10.0,NW,19.6,34.5,0.00,Rain,Light Rain,320,2012-10-25 17:09:00
12:37 PM,53.6,51.8,94,29.98,5.0,NW,15.0,26.5,0.01,Rain,Light Rain,320,2012-10-25 17:37:00
12:49 PM,51.8,51.8,100,29.99,5.0,NNW,16.1,25.3,0.02,Rain,Light Rain,340,2012-10-25 17:49:00
12:53 PM,52.0,52.0,100,29.98,6.0,NNW,17.3,25.3,0.02,Rain,Light Rain,330,2012-10-25 17:53:00
1:15 PM,50.0,48.2,94,30.00,6.0,NNW,17.3,29.9,0.00,Rain,Light Rain,340,2012-10-25 18:15:00
1:34 PM,50.0,48.2,94,30.01,10.0,NNW,16.1,-,0.00,Rain,Light Rain,340,2012-10-25 18:34:00
1:42 PM,50.0,48.2,94,30.01,9.0,North,20.7,24.2,0.00,Rain,Light Rain,350,2012-10-25 18:42:00
1:51 PM,50.0,48.2,94,30.02,10.0,NNW,17.3,-,0.00,Rain,Light Rain,340,2012-10-25 18:51:00
1:53 PM,50.0,48.0,93,30.01,10.0,NNW,17.3,23.0,0.00,,Overcast,340,2012-10-25 18:53:00
2:53 PM,51.1,46.0,83,30.02,10.0,North,18.4,27.6,0.00,,Overcast,350,2012-10-25 19:53:00
3:28 PM,51.8,44.6,76,30.05,10.0,North,23.0,33.4,N/A,,Overcast,350,2012-10-25 20:28:00
3:38 PM,51.8,44.6,76,30.05,10.0,NNW,18.4,28.8,N/A,,Overcast,340,2012-10-25 20:38:00
3:53 PM,52.0,44.1,74,30.05,10.0,North,18.4,29.9,N/A,,Overcast,350,2012-10-25 20:53:00
4:53 PM,51.1,42.1,71,30.07,10.0,North,23.0,29.9,N/A,,Overcast,350,2012-10-25 21:53:00
5:53 PM,48.9,41.0,74,30.09,10.0,North,23.0,26.5,N/A,,Overcast,350,2012-10-25 22:53:00
6:42 PM,48.2,39.2,71,30.13,10.0,North,15.0,23.0,N/A,,Mostly Cloudy,350,2012-10-25 23:42:00
6:53 PM,48.0,39.9,74,30.13,10.0,North,16.1,-,N/A,,Mostly Cloudy,360,2012-10-25 23:53:00
7:21 PM,48.2,39.2,71,30.15,10.0,North,20.7,26.5,N/A,,Overcast,360,2012-10-26 00:21:00
7:53 PM,48.9,39.9,71,30.14,10.0,North,17.3,24.2,N/A,,Overcast,360,2012-10-26 00:53:00
8:53 PM,48.9,39.0,69,30.17,10.0,North,19.6,26.5,N/A,,Overcast,360,2012-10-26 01:53:00
9:53 PM,48.0,39.0,71,30.18,10.0,North,15.0,-,N/A,,Overcast,360,2012-10-26 02:53:00
10:53 PM,48.0,39.0,71,30.19,10.0,North,12.7,-,N/A,,Overcast,10,2012-10-26 03:53:00
11:23 PM,46.4,37.4,71,30.20,10.0,NNE,17.3,-,N/A,,Scattered Clouds,20,2012-10-26 04:23:00
11:51 PM,48.2,37.4,66,30.20,10.0,North,17.3,29.9,N/A,,Mostly Cloudy,10,2012-10-26 04:51:00
11:53 PM,48.0,37.9,68,30.20,10.0,North,16.1,29.9,N/A,,Mostly Cloudy,10,2012-10-26 04:53:00